Date,TemperatureHighF,TemperatureAvgF,TemperatureLowF,DewpointHighF,DewpointAvgF,DewpointLowF,HumidityHigh,HumidityAvg,HumidityLow,PressureMaxIn,PressureMinIn,WindSpeedMaxMPH,WindSpeedAvgMPH,GustSpeedMaxMPH,PrecipitationSumIn
2013-3-1,32.7,29.6,26.1,25.9,21.1,17.5,82,71,58,30.27,30.15,19,6,19,0.04
2013-3-2,39.4,28.8,20.7,23.1,19.0,13.2,96,69,42,30.36,30.21,16,4,16,0.00
2013-3-3,56.8,42.4,23.5,27.7,22.8,16.4,82,48,30,30.21,29.82,18,6,18,0.04
2013-3-4,66.6,55.4,43.7,44.5,34.7,25.5,76,47,36,29.91,29.68,27,7,27,0.04
2013-3-5,44.8,38.0,30.2,37.4,23.3,14.1,98,58,36,30.36,29.91,37,11,37,0.08
2013-3-6,48.9,35.5,23.4,22.5,17.2,12.2,68,48,32,30.41,30.24,13,4,13,0.04
2013-3-7,62.4,49.1,35.8,26.3,22.7,18.9,50,37,26,30.27,30.15,17,6,17,0.04
2013-3-8,60.8,52.9,42.8,33.7,29.3,23.9,52,41,36,30.27,30.06,19,9,19,0.00
2013-3-9,79.5,61.5,52.5,73.7,45.2,29.6,94,58,38,30.06,29.76,29,10,29,1.29
2013-3-10,76.1,61.2,29.5,70.4,56.7,26.9,96,85,82,30.00,29.71,27,8,27,0.79
2013-3-11,45.5,33.6,26.8,29.4,24.2,19.8,92,71,40,30.09,29.94,22,9,22,0.79
2013-3-12,55.4,42.0,27.1,33.6,26.7,16.1,94,59,30,30.33,30.03,22,4,22,0.79
2013-3-13,53.8,37.7,27.3,21.9,16.8,13.5,66,43,26,30.47,30.33,11,1,11,0.00
2013-3-14,72.0,53.2,33.3,39.7,25.8,15.1,52,35,26,30.39,30.15,24,5,24,0.00
2013-3-15,79.2,64.6,50.2,44.4,39.5,35.0,70,42,24,30.15,29.88,27,6,27,0.00
2013-3-16,76.5,62.8,51.8,45.0,38.7,33.7,52,41,32,29.91,29.82,19,5,19,0.00
2013-3-17,65.8,55.2,42.1,61.0,48.4,32.2,96,79,50,29.91,29.74,23,7,23,0.24
2013-3-18,64.4,52.3,34.3,59.6,40.7,22.6,94,67,34,30.09,29.74,18,5,18,0.00
2013-3-19,57.7,44.5,30.4,28.5,20.1,13.3,86,41,20,30.30,30.03,17,5,17,0.00
2013-3-20,48.6,38.5,27.9,28.9,18.8,11.3,86,47,28,30.39,30.12,19,4,19,0.00
2013-3-21,35.6,34.6,33.6,34.3,18.8,13.3,96,55,42,30.12,29.85,17,7,17,0.17
2013-3-22,54.5,42.8,34.0,50.4,40.9,32.7,98,93,86,29.97,29.82,18,6,18,0.54
2013-3-23,46.0,40.9,38.3,43.8,39.9,37.5,98,96,92,29.94,29.74,15,6,15,0.00
2013-3-24,58.3,37.6,25.3,54.0,32.4,17.2,100,82,62,30.18,29.68,32,12,32,0.04
2013-3-25,34.3,28.4,23.7,21.3,18.5,15.1,80,67,52,30.36,30.09,26,10,26,0.00
2013-3-26,47.3,31.9,19.4,26.4,20.0,16.0,98,65,38,30.44,30.33,15,2,15,0.00
2013-3-27,59.7,44.9,26.2,26.5,22.3,17.6,80,44,26,30.33,30.15,18,6,18,0.00
2013-3-28,68.7,57.3,47.1,44.3,33.9,23.6,62,41,38,30.24,30.15,16,5,16,0.00
2013-3-29,71.4,62.1,54.0,66.3,56.4,43.7,96,82,60,30.24,28.97,15,4,15,0.17
2013-3-30,71.2,59.2,54.3,66.5,57.0,53.0,98,93,76,30.15,29.94,19,4,19,0.16
2013-3-31,69.4,60.5,45.9,63.5,50.0,38.1,96,71,36,30.06,29.91,24,4,24,0.04